Wind_Speed
8 8 7 7 6 6 5 5 6 6 7 7 8 8 9 10 12 12 12 10 8 7 7 7 7 7 8 7 6 4 4 5 5 5 6 6 6 6 7 8 9 9 9 10 10 10 10 10 10 11 11 12 13 14 14 15 18 20 22 23 24 24 22 21 20 20 19 18 16 15 14 14 14 16 17 19 20 20 21 21 21 21 20 20 20 21 21 20
9 9 8 7 6 6 6 6 6 7 7 8 8 9 10 11 12 12 12 10 9 7 7 7 7 7 7 7 6 5 5 6 6 6 6 6 7 6 6 8 9 10 9 9 9 10 10 10 10 11 11 12 13 14 16 16 19 21 23 25 25 22 20 19 20 21 20 19 17 16 16 16 16 17 20 21 21 22 22 22 21 21 20 21 22 22 21 20
9 9 8 8 7 6 6 6 6 6 7 8 9 10 11 12 13 12 11 10 9 8 7 7 7 7 7 6 6 5 6 6 7 7 7 7 7 7 7 8 8 9 9 9 9 10 10 10 10 11 11 12 13 15 17 17 19 21 24 26 23 20 18 18 20 21 22 21 20 19 20 20 19 20 23 23 23 24 23 20 19 20 20 22 22 22 20 19
9 9 9 8 8 7 6 5 5 6 6 8 9 10 11 12 13 12 11 10 9 9 8 8 7 7 6 6 5 5 6 7 8 8 8 8 8 8 8 9 9 9 9 9 10 10 10 10 10 11 12 12 13 15 18 18 18 20 24 24 20 18 18 18 19 21 22 23 23 22 23 23 22 23 25 24 25 24 20 18 18 19 20 22 23 21 19 17
9 9 9 8 7 6 5 4 5 5 6 7 9 10 11 12 12 11 10 9 9 9 9 8 8 7 6 5 5 5 7 7 8 8 8 9 9 9 10 11 11 10 10 10 10 10 11 11 11 12 12 12 13 15 16 17 18 20 21 21 19 19 19 17 18 20 22 23 24 25 26 26 25 26 25 25 26 22 18 17 19 20 21 22 21 18 16 15
8 8 8 6 5 4 3 4 4 5 6 8 9 11 11 11 10 9 8 8 8 8 8 8 8 7 6 5 5 6 7 7 8 8 9 9 9 10 11 11 12 11 11 11 11 11 11 11 11 12 13 13 14 15 16 17 19 20 20 19 19 19 19 17 18 20 21 23 24 25 26 26 26 26 25 25 23 18 17 19 20 21 20 18 16 14 14 14
6 4 3 2 2 2 2 3 5 6 7 9 10 11 11 9 8 7 7 7 7 7 7 8 7 7 6 6 6 7 8 9 10 10 10 10 11 11 11 12 12 11 11 11 11 11 12 12 12 13 13 13 15 16 16 18 19 21 19 18 18 19 19 18 18 20 21 23 22 24 24 24 25 25 25 24 20 16 17 20 19 17 15 13 12 12 14 15
7 5 4 3 2 1 2 4 6 7 8 9 10 10 9 8 7 7 6 6 6 5 6 7 7 7 7 7 7 8 9 10 11 11 11 12 11 12 12 12 12 12 11 11 11 11 12 12 12 13 14 14 15 16 17 18 19 21 20 18 18 19 19 19 20 20 22 23 22 24 23 23 23 23 24 21 17 16 17 17 16 14 13 12 12 13 15 17
7 6 4 3 1 1 3 5 6 7 8 9 9 9 8 7 7 6 6 6 5 5 5 6 6 7 7 8 8 9 10 10 11 12 12 12 12 12 12 12 13 13 12 12 12 11 12 12 12 13 14 14 15 16 17 19 20 21 20 19 19 19 19 20 20 21 22 22 23 23 23 23 23 24 23 17 14 14 14 14 14 13 13 13 13 14 16 18
5 4 4 3 3 4 5 6 7 7 8 8 8 7 6 6 6 6 6 6 5 6 6 6 7 7 8 8 9 9 10 11 12 11 12 12 12 12 12 12 13 13 13 12 12 12 12 13 13 14 14 14 16 16 18 20 21 21 21 21 20 19 20 20 21 21 22 22 22 23 23 22 22 23 19 13 13 13 13 13 13 12 13 13 14 14 15 18
5 4 4 5 5 5 6 6 6 7 7 7 6 6 6 6 6 6 6 6 6 6 6 6 7 7 8 9 9 10 10 12 12 12 12 12 12 12 12 13 13 13 13 13 12 12 13 14 14 15 14 15 16 16 18 20 22 22 23 23 21 21 22 21 22 21 22 22 22 23 24 22 23 21 14 10 12 12 13 15 14 14 13 14 14 14 16 18
4 4 4 4 5 5 5 5 5 6 6 6 6 6 7 7 7 7 7 7 6 7 7 7 7 7 8 9 9 9 11 12 12 12 12 12 12 12 12 13 13 13 13 13 13 13 13 14 15 16 15 16 16 16 17 18 20 21 23 24 22 22 23 22 22 22 22 23 23 23 24 21 17 13 9 11 13 13 14 16 16 16 14 14 15 16 17 18
4 4 4 4 4 5 5 5 5 6 6 6 7 7 8 8 9 9 9 9 8 8 8 8 8 8 9 9 9 10 11 11 11 11 12 12 11 11 12 12 12 12 14 14 14 14 14 14 15 16 17 19 18 18 18 18 19 19 21 24 23 23 22 20 20 19 19 20 19 19 20 15 8 7 10 13 14 15 16 17 18 18 15 15 17 20 19 18
7 6 5 5 5 5 5 6 6 7 7 7 7 8 8 9 9 9 10 10 10 9 10 10 10 10 11 10 10 11 11 11 11 11 11 11 10 10 11 12 11 12 14 14 14 14 14 15 16 17 18 19 20 20 21 21 21 21 22 23 22 22 20 16 14 13 13 14 13 14 18 13 8 10 12 12 15 17 18 21 22 20 18 18 19 21 20 19
8 7 7 6 6 6 6 7 7 8 8 8 8 9 9 9 9 10 10 11 11 11 11 12 12 12 12 11 11 11 11 10 10 11 10 10 10 11 11 12 12 12 14 15 15 14 15 16 16 17 18 19 20 20 21 21 21 22 22 21 20 21 19 14 12 12 12 13 12 12 15 10 6 11 14 16 20 22 23 25 24 22 22 24 22 21 21 20
6 7 8 8 8 8 8 9 9 9 9 9 10 10 10 10 10 11 11 12 12 12 13 14 13 13 13 12 11 10 10 10 11 12 13 13 12 12 12 12 12 13 14 15 15 15 15 16 16 17 18 19 20 20 20 21 21 21 21 20 18 18 17 13 11 12 13 14 14 16 17 15 14 18 22 25 25 24 24 24 24 26 27 28 25 20 21 20
5 7 8 9 9 10 10 10 10 10 10 11 11 11 11 11 11 12 12 12 13 13 15 15 13 13 13 11 10 10 11 12 12 14 15 14 13 13 13 13 13 14 15 15 16 16 16 16 17 17 18 19 19 18 18 19 19 18 18 18 16 16 17 15 13 14 16 17 20 21 22 21 20 22 25 27 25 22 23 24 27 29 29 26 21 17 19 20
5 6 8 9 10 11 11 12 12 11 11 12 12 12 12 11 12 13 13 13 14 15 15 14 14 14 12 11 12 13 14 14 13 14 14 14 13 13 13 13 13 14 15 16 16 16 16 16 16 17 19 19 18 17 17 18 19 18 18 19 19 19 19 18 17 18 20 22 24 23 22 20 19 21 22 24 24 24 25 26 26 24 21 17 14 14 17 19
4 6 8 9 10 11 12 13 13 13 13 13 13 14 13 12 12 13 13 14 15 15 15 15 15 15 13 13 14 14 13 13 13 14 14 14 14 13 13 13 13 14 15 16 16 16 16 17 18 19 19 17 16 18 19 19 21 21 21 22 22 22 21 19 20 21 22 23 21 18 18 17 17 17 18 21 24 26 25 21 17 13 11 9 11 13 16 19
4 6 8 9 10 12 13 14 14 14 14 15 15 15 14 13 13 13 13 14 15 15 15 16 16 14 12 11 10 10 10 10 11 12 13 13 13 13 13 13 13 14 15 15 16 17 17 18 19 18 16 14 16 19 20 20 21 21 21 21 21 23 23 20 21 23 22 19 14 13 15 15 16 17 19 21 22 21 16 11 7 6 7 8 11 13 15 18
5 6 7 9 10 12 13 15 15 16 16 16 16 16 15 14 14 14 14 14 15 16 15 14 12 10 8 7 7 8 8 8 10 11 11 12 12 12 12 12 12 13 14 15 16 16 17 19 17 16 16 16 18 19 19 18 18 18 18 20 21 22 23 22 21 21 17 12 10 11 14 15 16 16 15 15 14 11 6 4 4 6 8 10 11 13 15 15
5 6 7 9 11 12 14 15 16 17 18 18 18 17 16 16 15 16 16 15 15 16 13 10 8 7 6 6 7 7 8 8 10 11 11 10 11 12 12 12 12 13 13 14 15 16 17 17 15 14 16 16 16 17 18 18 18 18 18 20 22 22 22 20 18 15 11 8 8 11 13 13 12 10 9 8 7 4 2 4 5 7 9 11 11 12 12 13
5 6 8 10 12 13 14 15 16 17 18 19 19 18 17 16 16 16 16 16 16 13 9 6 5 5 6 7 8 9 10 10 12 12 10 10 12 13 13 13 13 13 13 13 14 16 16 15 12 13 15 15 16 18 18 18 18 17 18 19 21 20 18 16 14 12 11 9 9 13 13 7 4 3 3 3 3 2 3 4 5 7 8 10 11 11 12 12
6 7 9 11 13 14 15 16 16 17 19 20 20 19 18 16 16 16 16 16 14 8 4 4 5 6 7 8 10 11 12 14 14 12 11 14 15 13 12 13 13 12 12 13 14 15 16 15 15 16 16 16 16 16 15 16 16 16 16 18 19 17 15 14 13 13 13 12 13 14 9 1 2 2 3 4 3 3 4 5 6 7 8 9 11 13 13 12
7 8 9 12 13 14 15 16 16 18 20 20 20 19 18 16 16 16 17 16 9 3 3 5 6 7 8 10 12 14 15 15 14 12 14 15 13 11 11 12 12 12 13 14 14 15 16 16 16 15 13 13 14 14 14 15 16 17 16 16 15 13 13 13 13 14 12 11 12 11 5 2 5 5 6 8 6 6 7 7 7 8 9 10 11 12 12 11
8 8 10 12 14 15 16 16 18 20 21 20 20 19 17 17 16 15 17 13 4 1 4 6 7 8 10 13 16 17 16 14 13 13 14 13 11 11 12 13 13 12 13 14 14 14 14 13 12 12 13 14 14 14 14 14 16 16 14 12 11 11 12 13 15 14 11 8 8 10 7 3 8 8 8 10 9 9 10 9 9 9 10 11 10 10 10 11
9 9 11 13 14 15 16 17 19 21 21 21 20 19 17 16 15 15 14 8 2 2 6 8 8 9 12 15 18 17 14 12 12 13 12 11 11 12 12 12 12 12 13 13 13 12 11 11 12 13 14 14 14 13 12 13 13 12 10 9 11 13 14 14 15 15 15 14 12 15 15 7 9 11 11 12 11 11 12 11 10 11 10 10 10 10 11 12
10 10 12 13 14 15 16 18 20 21 22 21 20 18 16 15 14 13 8 3 2 5 7 8 8 11 14 16 17 16 13 12 10 10 10 12 12 11 11 12 12 13 13 13 13 13 12 12 13 13 13 12 12 11 11 11 9 9 9 11 13 14 14 16 17 18 18 15 14 14 15 8 7 14 13 11 12 11 11 11 10 10 10 10 11 12 13 13
11 11 12 13 14 15 17 19 21 22 21 20 18 16 15 14 13 11 4 0 3 6 7 9 10 13 16 16 16 14 12 11 9 9 12 12 12 12 12 12 13 13 13 13 13 12 12 13 13 14 13 12 11 9 8 8 8 9 12 12 13 15 17 19 18 16 11 8 7 9 16 8 5 15 15 9 12 11 12 12 10 10 11 11 13 13 14 14
11 11 12 13 15 17 19 21 21 22 20 18 16 14 14 13 11 6 0 1 6 7 7 10 13 16 17 15 13 11 10 10 10 12 13 12 13 13 12 12 13 12 11 10 8 8 11 13 13 12 9 8 7 7 6 8 11 11 11 12 14 17 17 16 12 7 4 4 4 7 17 10 3 13 14 10 12 11 12 13 12 12 13 13 13 14 15 15
11 12 12 14 16 18 20 21 21 20 18 16 15 13 13 12 8 2 1 4 8 7 8 12 14 17 17 14 10 9 10 11 12 12 12 13 13 12 12 11 11 10 7 6 6 10 12 11 10 7 5 5 5 6 8 11 10 8 11 14 14 13 9 7 6 3 2 3 1 4 14 9 3 8 13 13 13 11 13 15 15 15 15 14 13 14 16 16
11 12 13 15 18 20 21 21 20 18 16 15 13 13 12 9 5 2 3 7 8 8 12 15 15 16 15 12 10 9 11 12 13 12 12 13 12 12 12 9 9 9 6 8 11 11 9 8 7 5 5 6 6 8 11 10 7 9 14 12 7 4 3 3 3 2 3 3 4 6 8 5 6 9 13 15 16 16 18 18 16 16 15 14 14 15 17 18
11 13 15 18 20 21 21 20 18 16 15 14 13 12 11 6 2 4 7 8 8 11 15 16 16 15 13 11 10 11 12 12 12 12 13 14 13 13 11 8 10 9 8 11 13 10 8 6 5 5 6 7 10 12 10 7 9 15 12 4 2 1 2 2 3 2 4 2 5 4 2 5 10 10 13 17 19 21 22 19 17 16 16 15 14 15 18 20
13 15 18 20 21 21 20 18 16 15 14 14 12 11 9 4 3 6 9 9 10 12 14 15 15 13 11 10 9 11 13 12 12 13 15 13 12 11 8 8 10 9 9 11 11 11 8 5 5 7 9 12 14 11 8 10 15 13 5 3 5 2 2 3 3 2 3 2 2 4 2 7 13 12 15 20 21 22 23 20 17 16 16 15 15 17 20 22
16 18 20 21 21 20 18 16 15 14 14 13 11 9 7 4 5 8 9 10 12 12 13 14 13 11 11 9 10 12 13 13 13 14 14 12 11 8 6 9 10 8 10 11 11 10 6 5 8 10 12 14 11 8 10 14 12 6 5 5 6 4 4 5 5 5 4 3 3 2 2 8 15 15 17 19 20 22 22 20 19 17 17 17 17 19 23 27
18 19 21 21 19 17 15 15 14 14 12 11 9 8 6 5 6 9 10 11 13 13 13 13 11 10 10 9 10 13 13 13 13 13 12 11 10 6 7 11 10 8 11 13 13 8 5 8 10 12 13 11 7 9 13 12 7 5 6 6 5 6 7 7 6 5 3 2 2 5 7 11 15 13 17 19 19 22 22 20 20 18 19 19 21 25 29 33
19 20 20 19 16 15 14 14 14 12 10 9 8 8 6 6 8 9 10 12 13 14 14 12 11 10 10 11 12 12 13 12 12 12 12 10 8 6 9 11 8 9 14 15 12 8 10 13 12 11 9 6 8 13 13 9 7 7 6 6 6 7 7 5 3 2 1 1 3 7 10 16 15 10 17 23 21 21 21 19 19 19 21 23 26 30 35 38
19 19 18 15 14 13 13 14 13 10 8 9 9 8 7 8 9 9 10 11 12 12 12 11 10 10 11 13 13 13 13 12 12 12 10 8 7 8 11 10 9 12 15 14 12 11 12 13 12 10 6 7 12 14 11 8 8 7 7 8 8 6 4 3 2 2 1 2 2 4 9 15 15 10 14 23 23 20 20 18 18 21 24 27 31 35 39 42
18 16 14 13 13 13 13 14 11 8 9 10 10 8 8 8 9 9 10 11 11 11 10 10 10 10 11 12 12 13 13 12 13 11 8 7 9 10 10 10 12 14 15 15 14 12 11 9 10 9 7 10 14 13 12 9 8 7 6 6 5 4 5 5 5 3 2 2 2 1 3 7 13 14 13 19 22 20 19 19 20 24 28 32 36 39 42 45
15 14 13 13 13 13 14 13 9 8 10 11 9 8 8 8 9 9 10 10 10 10 10 10 10 10 10 11 12 12 12 12 11 9 7 9 12 11 10 12 14 15 15 15 15 13 11 8 10 12 12 13 14 13 12 9 5 4 3 4 5 5 6 7 8 8 5 3 1 2 2 3 11 15 14 16 18 18 18 19 23 28 33 36 40 42 45 48
14 14 14 14 14 14 14 11 8 9 10 9 9 8 8 8 8 9 9 10 9 9 10 9 9 9 10 10 11 12 12 11 9 8 9 11 11 10 11 14 15 14 15 16 14 12 10 9 14 18 16 14 15 14 9 5 4 3 4 7 7 7 7 5 5 6 5 3 2 2 2 4 10 15 16 16 16 16 17 21 27 32 36 40 43 45 48 49
15 15 14 13 13 13 12 9 9 10 10 9 8 8 7 8 8 8 9 9 9 9 9 9 9 9 9 10 10 11 11 10 9 9 10 11 12 12 14 15 16 16 17 16 13 11 10 11 15 17 14 13 14 11 5 5 4 5 8 10 9 9 8 3 3 5 6 7 7 4 2 6 12 15 16 18 17 17 20 26 31 35 39 43 46 47 47 48
14 13 12 12 12 12 10 9 10 10 9 9 8 7 7 8 8 8 9 8 9 9 8 8 9 8 9 9 9 10 12 10 9 10 10 12 15 15 16 17 16 17 17 14 11 10 10 10 13 15 14 9 7 4 6 6 5 9 13 16 13 10 8 6 7 10 9 8 6 3 2 5 9 12 15 17 17 19 25 30 34 39 42 45 46 46 46 49
13 12 11 12 12 11 9 9 10 9 8 8 7 7 8 8 8 8 8 8 9 9 8 8 8 8 8 9 9 11 12 11 11 11 12 15 16 16 17 17 17 18 16 11 9 10 10 10 11 12 9 4 2 2 4 7 10 14 17 18 15 11 9 8 8 9 7 4 3 1 1 3 6 9 12 14 19 24 30 34 38 41 44 44 44 45 47 50
12 11 11 12 11 9 9 9 9 8 8 7 7 8 8 8 8 8 8 8 8 8 7 7 7 7 8 8 9 11 13 13 13 12 13 16 16 16 17 17 18 17 12 9 11 12 11 9 9 7 3 2 4 5 8 13 16 18 18 16 13 11 9 8 8 7 4 3 4 3 4 6 11 14 17 20 25 30 35 38 40 40 40 42 44 47 49 50
11 10 10 11 9 8 9 9 8 7 7 7 7 8 8 8 9 8 8 7 8 8 7 6 7 7 8 9 10 11 14 15 15 14 15 16 16 16 17 17 17 14 10 10 12 11 9 8 7 5 5 7 10 13 15 17 17 16 15 13 11 10 10 10 8 6 5 6 7 5 7 11 16 20 24 27 31 36 39 39 38 38 41 45 48 49 50 50
12 11 11 10 8 8 9 9 8 8 8 8 8 8 8 8 9 8 8 7 7 7 7 6 6 7 8 10 11 13 15 16 16 16 16 16 16 17 18 17 14 11 10 10 9 9 9 8 6 5 7 10 13 14 14 12 12 12 11 11 10 10 10 9 7 4 5 7 6 6 10 17 22 26 29 32 36 38 38 36 37 42 47 49 50 50 50 51
12 12 12 11 9 9 9 9 8 8 8 8 8 8 8 9 9 8 8 7 7 7 7 6 6 8 10 12 13 14 16 17 17 18 18 17 17 18 18 15 12 9 9 9 8 9 9 8 7 8 10 11 10 9 9 10 10 10 9 10 10 10 9 8 6 4 5 7 9 12 17 23 28 31 34 36 37 36 36 37 41 46 49 49 49 50 51 52
13 12 12 11 10 10 9 9 9 9 9 9 8 8 9 9 10 9 8 8 8 7 7 7 8 10 12 13 14 15 17 18 19 19 20 19 19 20 17 13 9 8 8 9 9 10 10 10 11 10 10 9 7 7 10 11 11 10 10 10 10 10 10 9 7 6 9 12 15 20 24 27 31 34 35 35 34 34 37 41 45 48 49 49 50 51 52 52
13 12 12 11 11 10 9 9 10 9 9 9 9 9 10 10 10 10 9 8 8 7 7 8 10 12 14 15 15 15 17 19 20 20 20 19 19 19 14 10 7 7 8 10 11 11 12 12 11 9 8 7 6 8 12 12 12 11 10 9 9 9 10 9 9 11 14 17 20 25 29 32 33 34 33 33 33 37 42 45 47 49 49 50 51 52 52 52
13 12 12 11 10 10 10 10 10 10 10 10 10 10 10 10 10 9 8 8 8 7 8 10 12 14 15 15 16 16 17 20 21 20 19 18 17 15 10 6 5 7 9 12 13 14 13 12 10 8 6 4 5 10 13 13 13 12 10 10 10 11 11 11 13 15 19 22 26 30 34 35 35 33 33 34 37 42 47 48 48 49 50 51 52 51 51 52
12 12 12 11 10 10 10 10 11 11 10 10 10 10 10 10 10 9 8 8 8 8 10 12 13 15 16 16 16 17 18 21 21 20 18 16 14 11 7 4 5 9 11 13 15 15 14 12 10 9 7 5 6 11 14 13 12 9 9 11 12 13 14 15 16 19 23 27 30 34 36 35 33 33 35 39 43 47 49 49 49 51 51 51 51 50 51 51
Wind_Direction
313 310 309 311 315 319 320 320 322 322 319 320 324 327 327 328 331 330 329 326 320 312 300 289 281 280 281 280 275 265 255 251 247 244 240 242 245 248 254 260 261 256 251 248 245 246 247 249 250 250 248 243 239 234 231 227 222 222 224 228 235 238 238 239 241 240 244 251 260 265 258 252 255 265 272 276 283 291 296 299 302 302 301 296 291 286 284 285
300 296 294 294 298 303 308 311 314 316 317 320 324 325 325 327 330 328 324 322 318 310 300 290 280 276 275 275 272 262 255 258 256 255 252 249 252 257 261 260 258 255 251 247 245 247 250 253 251 250 246 242 239 233 232 231 228 228 230 235 241 245 245 245 245 244 247 254 261 263 262 261 265 271 275 280 286 291 295 300 303 303 299 292 287 287 289 291
296 290 286 282 281 284 290 297 302 309 311 315 320 321 323 325 327 325 320 319 315 310 302 291 282 275 274 273 273 267 260 262 263 265 264 263 268 272 272 268 264 262 258 253 251 251 252 253 253 251 248 245 242 235 235 236 234 235 236 242 250 255 254 252 250 249 250 253 257 260 264 268 273 276 278 283 288 290 295 303 304 300 294 288 287 290 293 294
299 292 284 277 272 269 273 282 290 297 302 310 316 319 321 322 323 321 317 317 315 310 305 298 290 284 282 282 284 279 268 267 267 264 263 264 271 276 277 277 275 273 270 267 263 261 260 257 255 255 254 252 246 238 239 240 238 239 241 248 257 260 259 257 255 254 252 252 255 258 262 269 276 277 280 285 286 290 301 306 300 293 287 285 286 290 292 293
303 293 285 278 269 259 259 270 279 287 297 308 315 318 320 321 322 319 314 314 315 309 304 301 295 293 291 292 290 282 278 278 271 261 260 261 266 275 279 278 277 276 273 271 270 268 266 264 262 261 260 258 251 242 241 242 242 245 249 254 257 257 257 257 255 255 255 253 254 257 262 269 273 274 279 283 284 295 306 300 292 287 284 285 287 290 289 288
314 300 289 282 264 243 247 262 276 287 298 308 314 319 320 321 322 318 312 313 315 308 301 297 294 292 291 290 286 280 280 282 275 269 265 262 265 273 277 276 272 269 267 266 266 265 266 266 265 263 261 259 254 248 244 242 245 250 255 256 255 256 258 258 256 257 258 257 258 261 264 268 271 274 278 279 286 301 300 288 287 288 287 289 288 285 282 281
350 339 319 285 215 210 241 266 284 296 304 311 315 318 319 321 324 318 309 311 316 308 297 293 291 289 286 283 280 277 278 280 281 278 270 267 269 273 276 275 270 266 265 264 263 263 265 265 263 262 261 257 255 254 251 247 250 254 257 259 259 259 261 260 259 259 260 262 263 264 265 268 271 275 277 282 295 301 287 283 288 289 289 288 283 278 277 277
35 47 66 95 133 193 265 287 299 305 309 313 314 315 317 321 323 318 309 308 314 311 299 295 293 288 284 279 275 275 277 280 281 278 274 273 274 275 276 274 271 269 268 267 266 265 265 263 262 262 262 258 256 257 257 255 257 260 262 262 261 260 261 262 261 262 263 265 265 265 266 268 271 274 277 287 298 288 280 285 288 285 284 283 280 277 277 278
41 50 62 69 57 305 306 307 309 311 313 315 316 314 314 317 321 319 310 306 308 306 300 298 295 289 283 279 276 275 278 278 277 278 277 276 276 276 276 274 271 269 266 266 267 267 266 264 261 262 263 263 261 260 261 260 260 264 266 263 260 260 260 260 260 262 264 265 265 266 266 268 271 273 279 291 292 278 280 284 283 283 281 281 279 275 278 282
10 13 11 357 334 318 312 313 314 315 317 319 320 316 313 315 318 316 308 305 305 302 303 302 299 293 286 282 279 279 280 278 277 278 278 276 275 273 272 271 269 267 264 263 265 265 264 264 262 262 264 265 263 261 262 261 262 265 266 263 262 262 262 262 262 263 264 266 267 268 268 269 269 271 282 295 282 271 274 273 275 281 276 272 271 268 274 283
335 325 325 321 315 312 310 314 316 317 320 324 328 325 320 320 318 317 310 306 305 303 305 306 303 297 290 286 284 283 281 278 279 280 279 279 276 272 268 266 265 266 265 262 262 262 261 262 263 263 263 262 261 261 261 262 264 265 265 264 264 265 266 265 265 265 267 267 266 267 268 268 269 276 289 285 264 263 262 260 272 285 275 262 260 261 271 279
341 323 317 317 316 316 314 316 318 322 327 334 339 339 336 332 329 326 320 315 314 311 310 310 307 301 297 293 289 285 279 278 282 283 282 282 278 272 266 263 263 265 265 263 261 260 260 259 262 264 263 261 260 261 263 263 264 265 266 266 265 264 267 268 270 272 272 270 268 270 273 273 275 279 275 255 255 263 258 260 278 290 278 259 253 258 268 273
13 5 354 349 344 339 332 328 327 330 336 338 340 341 340 339 337 335 330 325 322 319 315 314 312 307 304 302 295 285 280 281 283 284 283 282 278 274 269 265 263 262 263 263 260 260 261 261 263 263 261 262 261 261 264 264 265 266 267 270 270 269 270 272 276 278 277 275 273 273 273 276 288 279 258 253 263 270 266 270 283 288 280 269 263 260 261 264
30 26 17 7 359 352 346 343 340 338 337 333 332 332 333 335 336 335 332 329 325 322 318 317 315 311 308 306 299 290 286 286 285 286 287 286 282 278 274 271 267 264 264 264 264 263 264 264 265 265 264 264 264 263 265 267 268 270 271 273 275 276 278 282 285 284 288 288 285 279 275 280 291 277 269 268 275 279 279 279 281 281 279 283 281 266 256 256
31 30 26 17 10 2 357 354 349 343 337 332 327 325 326 327 328 327 326 325 324 323 320 317 316 312 309 307 301 296 293 293 293 293 294 293 289 283 279 276 272 267 265 265 267 267 267 268 267 268 266 266 267 267 268 270 272 274 276 276 277 280 282 286 287 289 296 298 296 290 285 293 292 278 280 280 282 284 282 279 278 279 281 287 288 270 254 253
23 23 23 20 15 9 5 0 353 346 340 334 328 325 323 321 321 319 317 318 318 318 317 315 314 312 310 306 299 294 295 300 300 296 296 295 291 287 283 281 277 272 269 268 268 267 268 268 269 269 268 268 268 269 272 274 274 276 278 280 280 283 285 286 286 291 298 301 301 295 290 294 291 284 281 278 279 279 279 280 280 282 285 287 287 271 254 252
14 17 21 20 17 13 9 4 357 350 344 337 331 325 322 319 318 316 315 317 316 314 313 311 311 311 310 304 296 291 294 298 297 292 294 294 292 291 287 283 281 277 273 271 268 269 269 269 270 270 269 268 267 271 274 273 275 278 280 282 280 282 286 288 289 292 297 301 302 299 295 294 288 280 276 275 275 276 279 283 285 287 288 288 284 267 250 246
9 16 20 17 14 10 8 5 360 354 348 343 335 327 324 322 319 317 317 316 314 313 311 310 310 309 306 300 295 294 294 296 293 288 289 291 291 290 287 285 282 279 276 273 272 272 273 272 272 270 269 269 270 271 271 272 278 281 281 281 281 281 281 285 291 294 298 301 300 297 293 287 279 273 274 276 279 284 288 292 293 292 290 284 273 254 241 236
9 16 15 11 8 5 3 0 357 353 348 344 339 333 329 325 322 321 319 316 315 314 312 310 307 304 301 298 296 296 297 297 293 290 290 291 289 288 288 286 282 279 277 276 275 274 275 275 273 273 275 278 275 269 269 273 277 278 278 278 280 282 280 284 292 296 298 300 297 291 284 279 275 274 277 282 289 295 299 301 300 293 282 264 246 236 229 227
11 12 9 8 6 3 0 356 354 351 346 342 338 334 329 326 324 324 323 320 316 313 310 308 305 303 303 303 303 305 308 305 299 297 297 295 293 291 289 286 282 279 277 276 276 276 276 274 275 279 284 281 272 269 272 273 274 276 276 275 278 281 283 288 294 296 297 295 288 280 279 279 282 285 290 295 300 304 307 308 297 269 248 235 228 224 221 223
5 6 7 9 6 3 359 354 352 348 344 341 337 332 329 327 326 325 324 322 317 313 311 308 304 307 312 315 317 320 323 317 311 309 305 303 301 297 293 288 283 279 277 277 276 277 276 275 280 286 282 274 270 270 272 273 275 275 276 279 280 283 289 295 296 294 292 284 273 272 276 283 292 301 306 305 304 304 301 281 250 228 225 221 219 219 219 221
358 2 3 2 359 357 354 350 349 346 343 340 336 333 329 326 325 324 324 323 319 316 314 311 311 317 324 328 329 328 327 323 319 314 309 310 308 303 298 292 285 280 278 277 276 277 276 279 285 280 273 271 270 269 271 275 277 277 281 282 283 288 295 297 293 289 286 277 264 267 274 285 300 310 311 300 290 276 225 221 216 211 216 213 211 213 212 213
349 353 350 349 346 345 345 344 344 344 342 339 336 333 329 325 324 323 324 325 322 318 315 319 325 328 331 332 329 324 319 317 316 313 309 314 311 303 295 290 287 283 279 275 274 274 277 282 282 274 274 274 271 271 275 278 279 281 284 284 287 293 293 290 287 284 284 280 270 271 273 282 312 308 281 266 254 207 165 189 195 192 200 199 194 192 194 201
335 340 339 339 338 337 339 338 340 342 341 337 334 331 327 324 324 323 323 326 323 317 323 333 331 330 331 331 329 324 317 313 312 308 306 311 310 301 294 291 287 284 281 277 275 276 278 281 280 280 279 276 276 278 280 281 283 285 286 287 289 289 285 282 281 282 285 282 276 271 267 213 105 194 187 155 171 171 152 176 187 181 182 180 180 184 191 198
319 327 331 334 334 334 334 333 337 341 338 334 332 329 326 324 324 323 325 326 319 308 331 336 336 332 328 327 329 326 319 313 310 306 306 310 307 301 299 295 290 287 284 281 281 281 282 283 283 283 281 280 282 282 283 286 287 289 289 287 285 282 282 282 282 286 286 277 264 251 243 112 132 164 155 147 165 170 166 188 192 180 177 179 188 197 200 202
309 316 324 328 329 331 331 332 336 338 334 332 330 326 323 323 323 324 325 321 291 260 334 335 336 333 325 323 325 326 321 316 312 308 308 309 307 304 301 298 295 291 287 287 287 286 286 285 283 284 285 286 284 281 283 285 287 290 288 284 283 286 287 285 288 289 282 266 238 223 229 175 146 162 160 159 176 175 169 184 186 183 188 192 202 211 212 215
304 311 319 324 326 329 331 333 334 333 330 330 328 324 322 322 322 323 325 323 267 282 325 330 330 329 325 323 323 326 325 319 314 312 311 312 311 309 307 304 300 297 294 293 290 289 290 287 287 289 289 287 284 284 285 284 286 286 283 286 292 294 291 288 287 284 280 273 260 246 241 216 153 165 168 167 177 173 173 183 186 194 204 207 215 221 224 229
301 308 316 322 324 327 331 332 331 329 329 328 326 324 322 321 322 321 322 345 316 307 319 325 324 323 325 325 324 328 327 322 319 315 314 315 314 313 311 307 303 302 299 295 291 292 293 290 291 292 291 290 287 287 285 283 285 283 291 299 298 298 295 291 288 285 283 274 270 253 226 201 149 166 168 173 180 175 181 193 198 210 220 224 229 232 234 239
302 309 317 321 323 326 330 330 328 327 327 327 325 324 323 323 323 320 311 200 310 313 318 323 321 321 325 326 326 327 327 325 323 318 316 316 314 313 310 307 305 303 300 297 293 294 295 294 295 293 290 288 283 284 282 282 293 296 300 302 301 302 297 294 290 284 280 257 259 229 192 171 135 168 168 177 191 191 199 206 213 223 231 237 241 244 246 251
306 312 318 321 323 327 329 328 327 327 326 325 324 324 325 326 323 321 249 262 313 315 315 321 323 323 325 327 326 324 324 322 321 319 317 317 317 314 312 310 308 306 302 298 294 298 299 298 298 296 289 281 276 277 278 296 305 300 302 307 307 304 294 290 285 271 265 233 245 205 188 182 148 176 183 192 196 204 217 218 220 226 236 244 247 254 259 264
310 315 320 323 325 328 327 326 326 325 324 324 325 325 328 327 323 322 150 311 318 317 315 322 325 323 325 329 326 321 322 320 319 320 318 320 321 318 318 315 314 316 306 295 306 308 304 301 300 296 289 282 275 277 294 306 302 292 309 314 306 299 288 279 264 213 204 241 275 177 190 188 124 175 195 194 181 190 216 224 222 226 235 242 252 263 268 275
313 318 323 324 325 327 326 325 324 323 322 324 325 326 328 328 318 275 303 314 316 318 321 325 327 327 329 332 328 324 325 323 322 323 323 326 326 324 325 325 331 338 322 312 319 315 309 305 295 291 297 288 278 298 310 305 294 304 315 314 302 309 330 288 248 199 233 229 120 137 177 156 105 148 177 179 175 187 209 219 220 226 237 244 256 268 273 279
319 322 324 323 324 325 324 323 322 321 323 324 324 324 326 327 300 293 311 315 314 319 324 327 330 332 333 334 329 325 327 327 325 328 330 331 330 329 333 337 342 348 337 327 329 331 329 312 283 289 303 299 300 313 316 302 309 314 311 305 289 7 36 296 269 280 277 212 144 160 186 135 134 150 172 178 184 194 206 216 220 229 241 250 261 272 278 283
323 323 323 322 323 323 322 321 322 322 324 324 322 322 320 310 297 309 318 319 320 324 326 329 332 332 332 333 331 329 332 332 329 331 332 331 331 331 334 341 344 346 341 339 338 336 328 300 289 299 303 308 310 314 312 310 314 307 275 280 296 256 169 251 248 232 254 246 220 256 272 167 163 167 183 189 194 198 205 214 222 233 244 254 267 277 283 287
323 322 321 321 321 322 322 323 324 325 325 323 321 323 320 306 307 317 322 323 326 331 331 330 332 332 333 336 334 333 337 335 329 331 332 331 332 331 333 341 342 342 347 349 342 331 310 285 301 301 299 306 307 307 314 316 315 285 249 292 290 255 246 255 263 259 251 302 294 232 123 171 177 175 185 196 203 204 208 217 224 237 247 256 270 278 285 292
322 322 321 321 322 324 326 328 328 327 325 324 324 325 323 318 322 325 327 329 331 333 334 333 333 334 336 338 337 336 336 333 329 331 333 333 334 333 336 339 338 340 345 345 340 329 296 298 308 302 299 300 293 308 320 320 310 281 276 283 274 279 278 260 274 282 251 312 251 170 128 153 173 184 195 202 208 209 214 222 228 242 252 262 278 287 294 302
322 322 322 323 325 329 331 331 330 326 326 330 331 328 327 327 328 328 330 331 332 334 337 338 336 337 338 338 339 339 336 334 334 333 334 336 337 337 338 339 339 337 338 339 338 326 306 309 315 311 301 287 295 313 322 316 300 293 283 281 286 292 282 248 264 337 54 318 226 189 165 165 173 191 202 203 209 213 219 230 240 255 268 280 294 301 306 311
323 323 324 325 329 331 332 332 329 324 326 333 333 331 330 329 329 330 332 334 335 336 338 340 339 338 339 338 339 341 340 339 339 338 340 344 345 337 335 336 333 333 336 337 335 328 316 312 316 318 297 288 308 315 319 310 293 287 280 286 294 285 274 245 243 324 314 277 273 205 178 180 192 207 205 206 213 221 231 246 263 277 290 299 307 310 312 315
324 325 327 328 329 329 330 331 326 319 326 334 335 333 331 332 333 335 336 337 338 338 340 343 341 338 339 340 341 343 343 342 341 344 349 348 342 336 333 334 333 335 337 334 330 325 315 303 306 312 300 302 312 313 314 307 287 284 281 290 305 284 278 273 252 263 250 242 292 232 176 190 212 223 220 215 221 232 247 264 283 297 304 308 311 313 315 316
326 327 328 328 327 327 328 329 324 321 329 333 334 335 335 338 339 339 340 340 340 342 342 342 342 341 343 344 344 344 346 344 344 349 348 341 341 339 335 333 332 333 332 328 324 318 309 287 281 298 305 309 311 310 311 305 277 284 304 319 322 303 297 290 269 267 259 228 164 191 232 210 214 226 232 228 232 244 261 278 295 304 308 310 312 314 315 316
327 326 327 327 327 327 328 328 327 328 332 334 336 340 342 343 343 342 343 343 343 344 342 341 345 347 347 347 347 349 350 348 348 352 345 340 342 338 330 329 328 328 327 324 321 313 304 280 277 295 310 314 311 308 298 266 242 290 334 338 331 318 314 305 271 266 263 250 236 232 248 217 218 231 233 234 244 256 273 291 301 306 309 311 312 315 316 317
326 326 326 328 329 331 331 332 334 333 336 340 342 345 346 346 347 345 345 346 347 346 345 345 349 351 351 352 357 1 359 356 355 351 346 341 337 329 324 324 323 323 325 324 320 313 304 288 283 296 313 312 309 305 258 209 240 298 321 331 333 324 312 291 254 280 290 284 273 271 274 236 235 242 242 244 253 267 286 300 305 309 310 311 312 314 315 315
330 330 332 334 335 337 336 336 337 337 342 345 348 353 353 351 349 349 350 351 350 350 350 350 353 356 359 3 11 11 6 3 355 347 343 339 333 326 322 322 322 325 327 326 323 320 313 301 295 305 316 310 297 273 216 215 271 304 313 320 326 327 314 290 280 287 290 287 280 285 298 249 246 257 261 260 267 285 299 305 308 310 311 311 312 313 314 314
338 338 338 339 339 340 339 340 340 342 349 354 358 1 359 356 355 354 354 354 354 354 354 356 360 4 9 13 14 9 5 2 352 342 337 334 330 326 324 325 326 328 328 326 324 323 317 308 304 314 326 326 285 236 236 261 293 306 311 315 320 323 317 304 294 290 282 272 278 275 270 288 297 298 293 288 291 300 306 309 312 314 313 312 312 314 314 313
344 343 342 342 343 343 344 346 348 353 0 5 7 5 3 1 360 358 357 357 357 358 359 4 8 11 15 15 8 1 358 355 349 340 335 333 331 328 327 327 329 328 326 323 321 320 318 310 304 306 308 295 290 289 290 294 301 306 308 309 312 311 311 312 308 296 265 254 284 277 268 303 317 315 312 308 306 308 311 313 315 314 311 311 312 313 313 313
351 350 350 349 350 353 355 357 1 6 9 12 12 9 7 5 1 0 1 1 360 0 3 7 9 12 11 4 358 355 353 350 346 341 337 335 333 330 328 327 328 326 323 322 324 326 327 322 312 297 272 277 285 288 292 298 302 304 303 303 306 307 310 318 319 302 276 287 297 280 276 299 311 311 310 310 310 311 312 313 313 312 311 313 315 316 316 316
0 1 2 3 3 2 4 9 11 12 14 16 14 11 8 5 3 1 2 2 360 360 2 3 4 5 360 353 350 349 348 346 344 341 339 335 332 329 327 327 327 325 326 330 335 339 336 330 326 311 292 290 292 292 298 307 310 306 301 301 304 307 311 318 322 310 302 308 300 277 290 305 310 310 311 313 314 314 314 315 317 316 316 317 317 317 317 318
8 9 11 13 12 10 11 14 14 15 18 17 13 11 8 6 5 2 1 0 357 356 358 359 358 356 353 350 346 343 343 342 341 340 336 333 330 329 328 328 327 329 336 342 344 344 340 332 325 319 309 303 302 305 316 326 324 313 301 296 297 301 309 319 325 317 312 310 302 300 309 313 313 314 316 317 317 316 317 319 319 317 316 317 317 318 318 319
12 13 13 13 14 14 16 16 13 14 16 14 12 11 8 6 3 360 359 358 354 353 355 354 353 352 351 348 343 340 342 341 339 337 333 330 329 329 330 331 329 337 350 353 349 347 345 335 328 325 317 307 307 322 330 330 322 308 296 293 298 304 310 315 315 312 312 313 312 312 314 315 315 315 316 316 316 316 317 317 317 317 317 318 319 319 320 319
12 13 12 12 12 13 14 14 12 12 12 11 11 9 7 4 1 358 356 355 352 352 352 351 350 349 348 345 341 339 341 339 337 334 330 328 327 328 331 334 336 351 359 355 351 349 345 338 335 331 317 298 305 329 333 327 314 302 297 295 297 302 304 303 305 310 314 316 314 313 313 315 316 316 316 318 318 317 317 318 319 319 319 320 320 320 320 318
10 10 11 12 11 12 12 10 10 10 10 10 8 6 5 2 360 358 354 351 351 348 345 345 346 345 345 342 338 336 337 336 335 331 328 327 329 330 334 338 351 1 356 351 351 351 348 344 343 341 325 293 308 329 328 317 302 290 285 288 297 308 313 311 311 314 317 318 316 316 318 319 319 320 320 320 319 317 318 320 321 320 321 321 320 320 319 319
7 8 9 10 11 11 10 7 8 8 9 8 5 4 4 1 359 357 353 351 347 340 339 342 342 342 342 338 335 335 335 334 333 330 329 330 333 335 338 347 0 358 352 352 353 352 353 355 357 2 356 320 311 323 320 309 295 281 284 301 313 321 321 316 313 315 318 319 319 319 321 322 322 322 321 320 319 319 320 322 322 321 321 320 320 320 320 319
Height
3156 3156 3155 3154 3154 3153 3152 3152 3151 3151 3150 3149 3149 3148 3147 3147 3146 3145 3144 3143 3143 3142 3142 3141 3141 3141 3140 3140 3140 3140 3139 3139 3139 3138 3138 3138 3138 3138 3138 3138 3137 3137 3137 3137 3137 3136 3136 3136 3136 3136 3136 3136 3136 3136 3136 3136 3136 3136 3135 3135 3133 3133 3134 3134 3135 3135 3135 3135 3135 3135 3135 3135 3135 3135 3134 3133 3133 3133 3132 3132 3131 3130 3130 3129 3129 3128 3128 3128
3156 3155 3155 3154 3154 3153 3152 3152 3151 3150 3149 3149 3148 3147 3146 3146 3145 3144 3143 3143 3142 3142 3141 3141 3140 3140 3140 3139 3139 3139 3139 3138 3138 3138 3138 3137 3137 3137 3137 3137 3137 3136 3136 3136 3136 3135 3135 3135 3135 3135 3135 3135 3135 3135 3135 3135 3135 3135 3134 3133 3132 3132 3133 3134 3134 3134 3134 3134 3134 3134 3133 3133 3133 3133 3132 3131 3131 3131 3130 3130 3129 3128 3128 3127 3126 3126 3126 3126
3155 3154 3154 3154 3153 3153 3152 3152 3151 3150 3149 3149 3148 3147 3146 3145 3144 3144 3143 3142 3141 3141 3140 3140 3139 3139 3139 3139 3139 3139 3138 3138 3137 3137 3137 3137 3136 3136 3136 3136 3135 3135 3135 3135 3134 3134 3134 3134 3134 3134 3134 3134 3134 3134 3134 3134 3134 3133 3133 3131 3131 3132 3133 3133 3133 3133 3133 3133 3133 3132 3132 3131 3131 3131 3129 3129 3129 3128 3129 3129 3127 3126 3126 3125 3124 3124 3124 3124
3154 3153 3153 3153 3153 3152 3152 3152 3151 3150 3150 3149 3148 3147 3146 3145 3144 3143 3142 3141 3141 3140 3139 3139 3138 3138 3138 3138 3138 3138 3138 3137 3137 3136 3136 3136 3136 3135 3135 3134 3134 3134 3133 3133 3133 3133 3133 3133 3133 3133 3133 3133 3133 3133 3132 3133 3132 3132 3131 3130 3131 3132 3131 3131 3132 3131 3131 3131 3131 3131 3130 3129 3130 3128 3127 3127 3126 3126 3128 3127 3125 3125 3124 3123 3123 3123 3123 3122
3153 3152 3152 3152 3152 3152 3152 3151 3151 3150 3150 3149 3148 3147 3146 3145 3144 3143 3142 3141 3140 3139 3139 3138 3137 3137 3137 3137 3137 3137 3136 3136 3136 3135 3135 3135 3135 3134 3134 3133 3133 3132 3132 3132 3132 3132 3131 3131 3131 3131 3131 3131 3131 3131 3131 3132 3131 3130 3129 3129 3130 3130 3129 3130 3130 3129 3129 3129 3129 3129 3128 3128 3127 3126 3126 3125 3124 3125 3126 3125 3123 3123 3122 3122 3121 3121 3121 3121
3152 3151 3151 3151 3151 3151 3151 3151 3151 3150 3149 3149 3148 3147 3146 3145 3144 3143 3142 3141 3140 3139 3138 3138 3137 3137 3136 3136 3136 3136 3135 3135 3134 3134 3134 3134 3134 3133 3133 3132 3132 3131 3131 3131 3131 3130 3130 3130 3130 3130 3130 3130 3130 3130 3130 3130 3129 3129 3128 3129 3129 3128 3128 3128 3128 3128 3128 3127 3127 3127 3126 3126 3125 3124 3124 3123 3123 3125 3124 3122 3122 3121 3121 3120 3120 3120 3120 3119
3152 3151 3150 3150 3151 3151 3151 3151 3150 3150 3149 3148 3147 3146 3145 3144 3143 3142 3142 3141 3140 3139 3138 3137 3137 3137 3136 3136 3135 3135 3134 3134 3134 3133 3133 3133 3133 3132 3132 3132 3131 3130 3130 3130 3130 3129 3129 3129 3129 3129 3128 3129 3128 3128 3129 3128 3128 3127 3127 3127 3127 3126 3126 3127 3126 3126 3125 3125 3125 3124 3123 3123 3123 3122 3121 3121 3123 3123 3121 3120 3120 3120 3120 3119 3119 3118 3118 3118
3152 3151 3151 3151 3151 3151 3151 3150 3150 3149 3148 3148 3147 3146 3145 3144 3143 3142 3141 3141 3140 3139 3138 3137 3137 3136 3136 3135 3135 3134 3134 3133 3133 3132 3132 3131 3131 3131 3131 3131 3130 3129 3129 3129 3128 3128 3128 3127 3127 3127 3127 3127 3127 3127 3127 3126 3126 3125 3125 3126 3125 3125 3125 3124 3124 3124 3123 3123 3122 3121 3121 3121 3120 3119 3119 3120 3121 3119 3118 3118 3119 3119 3118 3118 3117 3117 3116 3116
3153 3152 3152 3151 3151 3151 3151 3150 3150 3149 3148 3147 3146 3145 3144 3143 3143 3142 3141 3140 3140 3139 3138 3137 3137 3136 3135 3135 3134 3134 3133 3133 3132 3131 3131 3130 3130 3130 3129 3129 3128 3128 3128 3127 3127 3127 3126 3126 3126 3125 3125 3126 3125 3125 3125 3125 3125 3124 3124 3124 3123 3123 3122 3122 3122 3122 3121 3121 3120 3119 3119 3119 3119 3117 3117 3120 3119 3117 3117 3117 3117 3117 3117 3116 3116 3115 3114 3113
3153 3153 3152 3152 3151 3151 3150 3150 3149 3148 3147 3146 3145 3145 3144 3143 3142 3142 3141 3140 3140 3139 3138 3137 3136 3135 3135 3134 3133 3133 3132 3132 3131 3130 3130 3129 3129 3129 3128 3128 3127 3126 3126 3126 3125 3125 3125 3125 3124 3124 3124 3124 3124 3124 3124 3123 3123 3123 3122 3122 3121 3121 3120 3120 3120 3120 3119 3119 3118 3117 3117 3117 3116 3116 3117 3119 3117 3115 3116 3115 3114 3114 3114 3114 3114 3112 3112 3111
3153 3153 3152 3152 3151 3151 3150 3149 3149 3148 3147 3146 3145 3144 3143 3142 3142 3141 3140 3139 3139 3138 3137 3136 3135 3135 3134 3133 3133 3132 3131 3130 3130 3129 3129 3128 3128 3127 3127 3126 3125 3125 3125 3124 3124 3124 3124 3123 3123 3123 3123 3123 3122 3123 3122 3122 3121 3121 3120 3119 3119 3119 3118 3118 3118 3118 3117 3117 3116 3115 3114 3115 3115 3115 3117 3116 3114 3114 3114 3112 3112 3112 3111 3111 3111 3110 3109 3108
3154 3153 3152 3152 3151 3150 3150 3149 3148 3147 3146 3145 3145 3144 3143 3142 3141 3140 3139 3138 3138 3137 3136 3135 3134 3134 3133 3132 3131 3131 3130 3129 3128 3128 3127 3127 3126 3126 3125 3125 3124 3124 3123 3123 3123 3123 3123 3122 3122 3122 3122 3121 3121 3121 3121 3120 3120 3119 3118 3117 3117 3117 3116 3116 3116 3116 3116 3115 3114 3114 3113 3113 3114 3114 3114 3113 3112 3112 3111 3110 3110 3109 3109 3109 3108 3107 3106 3105
3154 3153 3152 3152 3151 3150 3150 3149 3148 3147 3146 3145 3144 3143 3142 3141 3140 3139 3138 3137 3136 3135 3135 3134 3133 3133 3132 3131 3130 3129 3128 3128 3127 3127 3126 3126 3125 3125 3124 3124 3123 3123 3122 3122 3121 3122 3121 3121 3121 3120 3120 3119 3119 3119 3119 3118 3118 3118 3117 3115 3115 3115 3114 3115 3115 3114 3114 3113 3113 3113 3111 3112 3113 3112 3111 3111 3110 3109 3108 3108 3107 3107 3107 3106 3106 3105 3104 3103
3154 3153 3152 3152 3151 3150 3150 3149 3148 3147 3146 3145 3144 3143 3141 3140 3139 3138 3137 3136 3135 3134 3133 3133 3132 3131 3130 3129 3129 3128 3127 3127 3126 3125 3125 3124 3124 3123 3123 3122 3122 3122 3121 3120 3120 3120 3120 3120 3119 3119 3119 3118 3118 3118 3117 3117 3116 3116 3115 3114 3113 3113 3112 3113 3113 3112 3112 3112 3112 3112 3110 3111 3112 3110 3109 3109 3108 3107 3106 3105 3104 3104 3104 3103 3103 3102 3101 3100
3154 3153 3153 3152 3151 3150 3150 3149 3147 3146 3145 3144 3143 3142 3141 3140 3139 3138 3137 3135 3134 3133 3132 3131 3131 3130 3129 3128 3127 3126 3126 3125 3125 3124 3124 3123 3123 3122 3121 3121 3121 3120 3120 3119 3119 3119 3119 3118 3118 3117 3117 3116 3116 3116 3115 3115 3114 3114 3113 3112 3112 3111 3111 3112 3112 3111 3111 3111 3111 3111 3109 3110 3111 3109 3108 3107 3105 3104 3102 3101 3101 3101 3100 3100 3099 3098 3098 3097
3154 3153 3153 3152 3151 3150 3149 3148 3147 3146 3145 3144 3143 3142 3141 3140 3139 3137 3136 3135 3134 3133 3131 3130 3130 3129 3128 3127 3126 3125 3125 3124 3124 3123 3122 3122 3121 3121 3120 3120 3119 3119 3118 3118 3118 3117 3117 3117 3116 3116 3115 3115 3114 3114 3114 3113 3112 3112 3111 3110 3110 3110 3109 3110 3110 3110 3110 3109 3109 3109 3108 3109 3109 3107 3104 3102 3101 3101 3099 3099 3098 3097 3096 3096 3095 3095 3094 3094
3154 3153 3153 3152 3151 3150 3149 3148 3147 3146 3145 3144 3142 3141 3140 3139 3138 3137 3135 3134 3133 3132 3131 3129 3129 3128 3127 3126 3125 3125 3124 3123 3123 3122 3121 3120 3120 3119 3119 3118 3118 3117 3117 3117 3116 3116 3116 3115 3115 3114 3114 3113 3113 3113 3112 3111 3111 3111 3110 3109 3108 3108 3108 3108 3109 3108 3108 3107 3107 3107 3106 3107 3106 3103 3100 3098 3098 3098 3097 3096 3094 3093 3092 3092 3091 3091 3091 3090
3154 3154 3153 3152 3151 3150 3149 3148 3147 3146 3144 3143 3142 3141 3140 3138 3137 3136 3135 3133 3132 3131 3129 3128 3128 3127 3126 3125 3124 3123 3123 3122 3121 3120 3119 3119 3118 3118 3117 3117 3116 3116 3115 3115 3114 3114 3114 3114 3113 3113 3112 3112 3112 3112 3110 3109 3109 3109 3108 3107 3106 3106 3106 3106 3107 3106 3106 3105 3105 3104 3103 3102 3101 3099 3097 3096 3095 3095 3094 3092 3091 3090 3089 3088 3088 3087 3087 3086
3154 3154 3153 3152 3151 3150 3149 3148 3147 3145 3144 3143 3141 3140 3139 3138 3136 3135 3134 3132 3131 3130 3128 3127 3126 3125 3125 3124 3123 3122 3121 3120 3120 3119 3118 3117 3117 3116 3116 3115 3115 3114 3114 3113 3113 3113 3113 3112 3112 3111 3111 3111 3110 3109 3108 3108 3107 3106 3106 3105 3104 3104 3103 3105 3105 3104 3103 3103 3102 3101 3099 3098 3097 3097 3096 3094 3092 3091 3090 3089 3088 3087 3086 3086 3085 3085 3084 3084
3154 3153 3153 3152 3151 3150 3148 3147 3146 3145 3143 3142 3141 3139 3138 3137 3135 3134 3133 3131 3130 3129 3127 3126 3125 3124 3123 3122 3121 3121 3120 3119 3118 3117 3116 3116 3115 3115 3114 3114 3114 3113 3112 3112 3112 3111 3111 3110 3110 3109 3109 3109 3108 3107 3106 3106 3105 3104 3104 3103 3102 3101 3101 3102 3103 3101 3101 3101 3100 3098 3097 3095 3095 3094 3093 3092 3091 3089 3088 3087 3086 3085 3085 3084 3084 3083 3083 3082
3154 3153 3152 3151 3150 3149 3148 3147 3146 3144 3143 3141 3140 3138 3137 3135 3134 3133 3132 3130 3129 3127 3126 3125 3124 3123 3122 3121 3121 3120 3119 3118 3117 3116 3115 3114 3114 3113 3113 3112 3112 3111 3111 3111 3110 3110 3109 3108 3108 3108 3107 3106 3105 3105 3104 3104 3103 3102 3102 3101 3100 3099 3099 3100 3100 3099 3099 3099 3098 3096 3095 3094 3092 3092 3091 3090 3089 3087 3086 3086 3085 3085 3084 3083 3083 3082 3081 3081
3154 3153 3152 3151 3150 3149 3148 3147 3145 3144 3142 3141 3139 3137 3136 3134 3133 3132 3131 3129 3128 3126 3125 3124 3123 3122 3122 3121 3120 3119 3118 3117 3116 3115 3114 3113 3113 3112 3111 3111 3110 3110 3109 3109 3108 3108 3107 3106 3106 3106 3105 3104 3104 3103 3102 3101 3101 3100 3100 3099 3098 3098 3097 3097 3097 3096 3097 3097 3096 3095 3094 3092 3091 3090 3090 3089 3088 3087 3086 3085 3085 3084 3083 3082 3082 3081 3080 3079
3153 3152 3152 3151 3150 3149 3147 3146 3145 3143 3141 3140 3138 3136 3135 3133 3132 3131 3129 3128 3126 3125 3124 3123 3122 3122 3121 3120 3119 3118 3117 3116 3115 3114 3113 3112 3112 3111 3110 3109 3109 3108 3108 3107 3106 3106 3105 3104 3104 3103 3103 3102 3101 3101 3100 3099 3099 3098 3097 3096 3096 3096 3096 3095 3094 3094 3094 3094 3094 3093 3092 3091 3090 3090 3089 3088 3087 3086 3085 3085 3084 3083 3082 3081 3080 3079 3078 3077
3153 3152 3151 3150 3149 3148 3147 3146 3144 3143 3141 3139 3137 3136 3134 3133 3131 3130 3128 3127 3125 3124 3123 3123 3122 3121 3120 3119 3119 3118 3116 3115 3114 3113 3112 3111 3110 3109 3108 3108 3107 3107 3106 3105 3105 3104 3103 3102 3102 3101 3101 3100 3099 3098 3098 3097 3096 3096 3095 3094 3094 3094 3093 3093 3093 3092 3092 3092 3091 3090 3090 3090 3090 3089 3088 3087 3086 3086 3085 3084 3083 3082 3081 3080 3079 3077 3077 3076
3153 3152 3151 3150 3148 3147 3146 3145 3143 3142 3140 3138 3137 3135 3133 3132 3130 3129 3127 3126 3124 3124 3123 3122 3121 3120 3120 3119 3117 3116 3115 3114 3112 3112 3111 3110 3109 3108 3107 3106 3106 3105 3104 3104 3103 3102 3102 3101 3100 3099 3099 3098 3097 3096 3096 3095 3094 3094 3093 3093 3092 3092 3091 3091 3090 3090 3090 3089 3088 3088 3088 3089 3090 3089 3088 3087 3086 3086 3085 3084 3083 3081 3080 3078 3077 3076 3076 3076
3152 3151 3150 3149 3148 3147 3145 3144 3142 3141 3139 3138 3136 3134 3132 3130 3129 3128 3126 3124 3123 3123 3122 3122 3121 3120 3119 3118 3116 3115 3113 3112 3111 3110 3109 3108 3107 3107 3106 3105 3104 3104 3103 3102 3101 3100 3100 3099 3098 3097 3097 3096 3095 3095 3094 3093 3092 3092 3092 3091 3090 3090 3089 3089 3088 3088 3087 3086 3086 3086 3086 3088 3089 3088 3087 3087 3086 3085 3084 3083 3081 3079 3078 3077 3076 3076 3076 3075
3152 3151 3150 3148 3147 3146 3144 3143 3141 3140 3138 3136 3135 3133 3131 3129 3128 3127 3125 3124 3123 3122 3122 3121 3120 3119 3118 3117 3115 3114 3112 3111 3110 3109 3108 3107 3106 3106 3105 3104 3103 3102 3101 3101 3100 3099 3098 3098 3097 3096 3095 3094 3093 3093 3092 3092 3091 3090 3090 3090 3089 3088 3087 3087 3086 3086 3085 3084 3084 3084 3084 3085 3087 3087 3087 3086 3085 3084 3083 3081 3079 3078 3077 3076 3076 3075 3074 3073
3151 3150 3149 3148 3146 3145 3143 3142 3140 3138 3137 3135 3133 3132 3130 3129 3127 3126 3125 3124 3123 3122 3121 3121 3120 3119 3118 3116 3114 3113 3112 3110 3109 3108 3107 3107 3106 3105 3104 3103 3102 3101 3100 3099 3098 3097 3097 3096 3095 3094 3093 3093 3092 3091 3091 3090 3089 3089 3088 3088 3087 3086 3085 3084 3083 3083 3082 3081 3080 3079 3080 3082 3085 3086 3086 3086 3085 3083 3081 3079 3077 3077 3076 3075 3074 3074 3072 3072
3150 3149 3148 3147 3145 3144 3142 3141 3139 3137 3136 3134 3132 3131 3129 3128 3126 3125 3125 3124 3122 3121 3121 3120 3119 3118 3117 3115 3113 3112 3111 3110 3109 3108 3107 3106 3105 3104 3103 3102 3101 3100 3099 3098 3097 3096 3095 3094 3093 3092 3091 3091 3090 3090 3089 3089 3088 3087 3087 3086 3085 3084 3083 3081 3081 3079 3079 3079 3077 3076 3076 3079 3084 3085 3084 3085 3084 3082 3080 3078 3076 3075 3074 3073 3072 3071 3070 3070
3149 3148 3147 3146 3144 3143 3141 3139 3138 3136 3134 3133 3131 3130 3128 3127 3126 3125 3124 3123 3122 3121 3120 3119 3118 3117 3116 3114 3113 3112 3111 3110 3109 3108 3106 3105 3104 3103 3102 3101 3100 3098 3098 3097 3096 3095 3094 3093 3092 3091 3090 3089 3089 3088 3088 3087 3087 3086 3085 3084 3083 3082 3080 3079 3078 3078 3078 3077 3075 3074 3075 3076 3081 3084 3083 3083 3083 3081 3078 3076 3075 3073 3072 3071 3070 3069 3068 3068
3149 3148 3146 3145 3144 3142 3140 3138 3136 3135 3133 3132 3130 3129 3127 3126 3125 3125 3124 3123 3121 3120 3120 3119 3118 3116 3114 3113 3112 3111 3110 3109 3108 3107 3106 3104 3103 3102 3101 3100 3099 3097 3097 3096 3095 3094 3093 3092 3091 3090 3089 3089 3088 3088 3087 3086 3085 3085 3084 3083 3081 3080 3078 3077 3077 3077 3077 3076 3073 3074 3074 3074 3078 3081 3081 3081 3082 3079 3076 3074 3073 3072 3071 3070 3069 3068 3067 3066
3148 3147 3146 3144 3143 3141 3139 3137 3135 3134 3132 3131 3129 3128 3127 3126 3125 3124 3124 3122 3121 3120 3119 3118 3117 3115 3113 3112 3111 3111 3110 3108 3107 3106 3105 3103 3102 3101 3100 3099 3098 3097 3096 3095 3094 3093 3092 3091 3090 3089 3089 3088 3087 3087 3086 3085 3084 3084 3082 3081 3080 3079 3078 3076 3076 3077 3075 3074 3073 3073 3073 3074 3077 3079 3079 3079 3079 3077 3073 3071 3071 3070 3069 3069 3068 3067 3065 3065
3147 3146 3145 3143 3142 3140 3138 3136 3134 3133 3131 3130 3129 3127 3126 3125 3124 3124 3123 3122 3121 3120 3118 3117 3115 3114 3113 3112 3111 3110 3109 3108 3106 3105 3104 3103 3102 3100 3099 3099 3098 3097 3096 3095 3093 3092 3091 3090 3089 3089 3088 3087 3086 3086 3085 3084 3083 3082 3081 3080 3080 3080 3080 3078 3077 3077 3074 3072 3073 3073 3073 3074 3076 3077 3077 3077 3076 3074 3071 3070 3070 3069 3068 3068 3067 3066 3064 3063
3147 3145 3144 3142 3140 3138 3136 3135 3133 3132 3130 3129 3128 3127 3126 3125 3124 3123 3122 3122 3121 3119 3118 3116 3115 3113 3112 3111 3110 3109 3108 3107 3106 3104 3103 3102 3101 3100 3099 3098 3098 3097 3096 3095 3093 3092 3091 3090 3089 3088 3087 3086 3085 3085 3084 3083 3082 3080 3080 3080 3079 3079 3079 3078 3076 3075 3073 3072 3073 3072 3072 3073 3075 3075 3075 3075 3073 3072 3071 3070 3069 3068 3067 3067 3066 3065 3062 3061
3146 3144 3143 3141 3139 3137 3135 3134 3132 3131 3130 3128 3127 3126 3125 3124 3123 3123 3122 3121 3120 3119 3117 3116 3114 3113 3112 3111 3110 3109 3108 3106 3105 3104 3103 3102 3101 3100 3099 3098 3098 3097 3096 3095 3094 3093 3091 3090 3088 3088 3087 3085 3085 3084 3083 3082 3080 3079 3079 3078 3078 3077 3077 3076 3075 3074 3073 3073 3072 3071 3072 3073 3073 3073 3073 3073 3072 3071 3070 3069 3068 3067 3066 3065 3065 3063 3061 3059
3145 3143 3141 3139 3137 3136 3134 3133 3131 3130 3129 3128 3127 3126 3125 3124 3123 3122 3121 3120 3119 3118 3116 3115 3114 3113 3112 3111 3110 3108 3107 3106 3104 3103 3102 3101 3100 3100 3099 3098 3098 3097 3096 3095 3094 3093 3091 3089 3088 3087 3085 3085 3084 3083 3082 3081 3080 3079 3078 3077 3077 3077 3076 3075 3074 3073 3074 3073 3071 3071 3072 3073 3073 3073 3072 3072 3071 3070 3069 3068 3067 3066 3065 3064 3063 3061 3058 3056
3144 3142 3140 3138 3136 3135 3133 3132 3131 3129 3128 3127 3126 3125 3124 3124 3123 3122 3121 3119 3118 3117 3116 3114 3113 3112 3111 3110 3109 3108 3107 3106 3104 3103 3102 3101 3100 3100 3099 3098 3098 3097 3096 3095 3094 3093 3091 3088 3086 3086 3084 3084 3083 3082 3081 3080 3079 3078 3077 3077 3076 3075 3075 3074 3074 3073 3074 3073 3070 3069 3070 3070 3071 3071 3070 3070 3070 3069 3068 3067 3066 3065 3063 3062 3061 3058 3055 3052
3142 3140 3138 3137 3135 3134 3133 3132 3130 3129 3128 3127 3126 3125 3124 3123 3122 3121 3120 3119 3118 3117 3115 3114 3113 3112 3111 3110 3109 3108 3106 3105 3104 3103 3102 3101 3100 3100 3099 3098 3098 3097 3096 3094 3093 3092 3091 3087 3085 3084 3084 3083 3082 3081 3080 3079 3078 3077 3076 3076 3075 3074 3074 3074 3073 3072 3072 3072 3070 3068 3069 3069 3069 3068 3068 3068 3068 3067 3067 3066 3064 3063 3061 3059 3057 3054 3051 3048
3141 3139 3138 3136 3135 3134 3132 3131 3130 3128 3128 3126 3125 3124 3123 3122 3122 3121 3120 3119 3118 3116 3115 3114 3113 3112 3111 3110 3109 3107 3106 3105 3104 3103 3102 3101 3101 3100 3099 3098 3097 3096 3095 3094 3092 3091 3090 3088 3085 3083 3083 3082 3081 3080 3079 3078 3077 3076 3076 3075 3075 3074 3074 3073 3073 3071 3071 3071 3070 3069 3069 3069 3068 3067 3067 3066 3066 3066 3065 3064 3062 3060 3058 3056 3053 3050 3047 3044
3140 3138 3137 3136 3134 3133 3132 3130 3129 3128 3127 3126 3125 3124 3123 3122 3121 3120 3119 3118 3117 3116 3115 3114 3113 3112 3111 3110 3109 3107 3106 3105 3104 3103 3102 3102 3101 3100 3099 3098 3097 3096 3094 3093 3092 3090 3089 3088 3085 3082 3082 3081 3080 3079 3078 3077 3076 3076 3075 3075 3074 3074 3073 3072 3072 3071 3070 3070 3070 3069 3067 3066 3065 3065 3065 3065 3064 3064 3063 3062 3060 3058 3055 3053 3050 3047 3044 3041
3139 3138 3136 3135 3133 3132 3131 3129 3128 3128 3127 3125 3124 3123 3123 3122 3121 3120 3119 3118 3117 3116 3115 3114 3113 3112 3111 3110 3109 3107 3106 3105 3104 3103 3103 3102 3101 3100 3099 3097 3096 3095 3094 3092 3091 3089 3088 3087 3084 3081 3081 3080 3079 3078 3077 3076 3076 3075 3075 3074 3074 3073 3073 3072 3071 3070 3069 3069 3069 3068 3065 3063 3063 3063 3063 3063 3062 3062 3061 3060 3058 3056 3053 3050 3047 3044 3041 3037
3138 3137 3135 3134 3133 3131 3130 3129 3128 3127 3126 3125 3124 3123 3122 3121 3121 3120 3119 3118 3117 3116 3115 3114 3113 3112 3111 3110 3109 3108 3106 3105 3104 3103 3103 3102 3101 3100 3098 3097 3095 3094 3092 3091 3089 3088 3087 3085 3083 3081 3080 3079 3077 3076 3076 3076 3075 3075 3074 3074 3073 3073 3073 3073 3071 3069 3069 3068 3067 3066 3064 3062 3062 3062 3061 3061 3061 3060 3060 3058 3056 3054 3050 3047 3044 3041 3038 3034
3137 3136 3134 3133 3132 3131 3129 3129 3128 3127 3126 3125 3124 3123 3122 3121 3120 3119 3118 3117 3116 3115 3114 3114 3113 3112 3111 3110 3109 3108 3107 3105 3104 3103 3102 3101 3100 3099 3097 3096 3094 3093 3091 3089 3088 3087 3086 3084 3082 3080 3079 3078 3077 3076 3076 3075 3075 3074 3073 3073 3073 3072 3072 3072 3071 3069 3068 3067 3066 3066 3064 3061 3061 3062 3061 3061 3060 3060 3058 3057 3054 3051 3047 3044 3041 3038 3035 3031
3136 3135 3134 3132 3131 3130 3129 3128 3127 3126 3125 3125 3124 3123 3122 3121 3120 3119 3118 3117 3116 3115 3114 3113 3113 3112 3111 3110 3109 3108 3107 3106 3104 3103 3102 3101 3099 3098 3096 3095 3093 3091 3090 3088 3087 3086 3085 3084 3082 3080 3079 3078 3077 3076 3076 3075 3074 3074 3073 3072 3072 3071 3071 3070 3069 3068 3067 3066 3066 3066 3064 3062 3062 3062 3062 3061 3060 3059 3057 3054 3051 3047 3043 3040 3037 3035 3031 3028
3135 3134 3133 3132 3131 3130 3129 3128 3127 3126 3125 3125 3124 3123 3122 3121 3120 3119 3118 3117 3116 3115 3114 3113 3113 3112 3111 3110 3109 3108 3107 3106 3104 3103 3102 3100 3098 3097 3095 3093 3092 3090 3089 3088 3087 3086 3084 3083 3082 3081 3080 3079 3078 3077 3076 3075 3074 3073 3072 3071 3071 3070 3070 3069 3068 3068 3067 3066 3065 3065 3064 3062 3062 3061 3060 3060 3058 3056 3053 3050 3047 3044 3040 3037 3034 3032 3028 3023
3135 3134 3133 3132 3130 3130 3129 3128 3127 3126 3126 3125 3124 3123 3122 3121 3120 3119 3118 3117 3116 3115 3114 3114 3113 3112 3111 3110 3109 3108 3107 3105 3104 3103 3101 3099 3098 3096 3094 3093 3091 3089 3088 3087 3086 3085 3084 3083 3082 3081 3081 3080 3078 3077 3076 3075 3074 3072 3071 3070 3070 3070 3069 3068 3068 3067 3066 3066 3065 3064 3063 3062 3061 3060 3059 3057 3055 3052 3049 3047 3044 3041 3037 3033 3030 3026 3021 3017
3135 3134 3133 3132 3131 3130 3129 3128 3128 3127 3126 3125 3124 3123 3122 3121 3120 3119 3118 3117 3116 3115 3115 3114 3113 3112 3111 3110 3109 3108 3107 3105 3104 3102 3100 3099 3097 3095 3093 3092 3090 3089 3088 3087 3085 3084 3083 3082 3082 3081 3080 3079 3077 3076 3075 3074 3073 3072 3071 3070 3069 3069 3068 3067 3067 3067 3066 3065 3064 3063 3062 3061 3060 3058 3056 3054 3051 3048 3045 3042 3039 3035 3031 3027 3024 3020 3016 3012
3135 3134 3133 3132 3131 3130 3129 3129 3128 3127 3126 3125 3124 3123 3122 3121 3120 3119 3118 3117 3117 3116 3115 3114 3113 3112 3111 3110 3109 3107 3106 3104 3103 3101 3099 3098 3096 3094 3092 3091 3089 3088 3087 3086 3085 3084 3083 3082 3081 3080 3079 3077 3076 3075 3074 3074 3073 3071 3070 3069 3068 3068 3067 3067 3067 3066 3066 3065 3064 3063 3061 3060 3057 3055 3052 3050 3047 3044 3041 3038 3035 3031 3027 3023 3020 3015 3011 3007
3136 3134 3133 3132 3132 3131 3130 3129 3128 3127 3126 3125 3124 3123 3122 3121 3120 3119 3118 3117 3117 3116 3115 3114 3113 3112 3111 3110 3108 3107 3105 3103 3102 3100 3098 3097 3095 3093 3091 3090 3089 3088 3087 3086 3085 3084 3083 3082 3080 3079 3077 3076 3075 3075 3074 3073 3072 3071 3070 3069 3068 3067 3067 3066 3066 3066 3065 3064 3063 3061 3059 3058 3055 3052 3050 3047 3044 3041 3038 3035 3032 3027 3023 3019 3015 3010 3006 3002
3136 3135 3134 3133 3132 3131 3130 3129 3128 3127 3126 3125 3125 3124 3123 3122 3121 3120 3119 3118 3117 3116 3115 3114 3113 3112 3111 3109 3108 3106 3105 3103 3101 3099 3097 3096 3094 3092 3091 3089 3089 3088 3087 3086 3085 3084 3082 3081 3079 3078 3077 3076 3075 3074 3073 3072 3072 3071 3070 3069 3068 3067 3066 3066 3065 3064 3064 3063 3061 3059 3057 3055 3052 3049 3046 3043 3040 3037 3034 3031 3027 3022 3018 3014 3010 3006 3002 2998
3136 3135 3134 3133 3132 3131 3130 3129 3128 3127 3127 3126 3125 3124 3123 3122 3121 3120 3119 3118 3117 3116 3115 3114 3113 3112 3110 3109 3107 3106 3104 3102 3100 3098 3096 3095 3093 3091 3090 3089 3089 3088 3088 3086 3085 3084 3082 3080 3079 3078 3077 3076 3075 3074 3073 3072 3071 3070 3069 3068 3067 3066 3065 3065 3064 3063 3062 3060 3059 3056 3054 3051 3048 3045 3041 3039 3036 3032 3029 3026 3022 3017 3014 3010 3006 3002 2998 2993
3136 3135 3134 3133 3132 3131 3131 3130 3129 3128 3127 3126 3125 3124 3123 3122 3121 3120 3119 3118 3117 3116 3115 3114 3113 3111 3110 3108 3107 3105 3103 3102 3099 3097 3096 3094 3092 3091 3090 3090 3089 3089 3088 3086 3085 3083 3082 3080 3079 3078 3077 3076 3075 3074 3073 3071 3070 3069 3068 3067 3066 3065 3064 3063 3063 3061 3060 3058 3056 3053 3050 3047 3043 3040 3037 3034 3031 3028 3024 3021 3017 3012 3009 3005 3001 2997 2993 2988